Saginaw, MI

6:54 PM EST on December 17, 2017 (GMT -0500)
MBS International

Weather History for KMBS - November, 2010

Change the Weather History Date:

Friday, November 5, 2010

  Actual Average Record
Temperature  
Mean Temperature 34 °F 43 °F  
Max Temperature 37 °F 51 °F 74 °F (2015)
Min Temperature 32 °F 35 °F 26 °F (2012)
Degree Days  
Heating Degree Days 30    
Month to date heating degree days  
Since 1 July heating degree days  
Cooling Degree Days 0    
Month to date cooling degree days  
Year to date cooling degree days  
Moisture  
Dew Point 21 °F    
Average Humidity 57    
Maximum Humidity 68    
Minimum Humidity 50    
Precipitation  
Precipitation 0.00 in 0.10 in 2.18 in (2005)
Month to date precipitation 0.47  
Year to date precipitation 27.45  
Snow  
Snow 0.00 in - - ()
Month to date snowfall  
Since 1 July snowfall  
Since 1 September snowfall  
Snow Depth -    
Sea Level Pressure  
Sea Level Pressure 29.92 in    
Wind  
Wind Speed 16 mph (NNW)    
Max Wind Speed 23 mph    
Max Gust Speed 29 mph    
Visibility 10 miles    
Events      
T = Trace of Precipitation, MM = Missing Value Source: NWS Daily Summary

Daily Weather History Graph

Daily Weather History Graph

Search for Another Location

Airport or City:

Trip Planner

Search our weather history database for the weather conditions in past years. The results will help you decide how hot, cold, wet, or windy it might be!

Date:

Astronomy

Nov. 05, 2010 Rise Set
Actual Time 8:17 AM EDT 6:22 PM EDT
Civil Twilight 7:46 AM EDT 6:52 PM EDT
Nautical Twilight 7:12 AM EDT 7:26 PM EDT
Astronomical Twilight 6:39 AM EDT 7:59 PM EDT
Moon 7:42 AM EDT (11/5) 5:42 PM EDT (11/5)
Length of Visible Light 11h 05m
Length of Day
10h 05m
Waning Crescent, 0% of the Moon is Illuminated
Nov 5
Waning Crescent
Nov 6
New
Nov 13
First Quarter
Nov 21
Full
Nov 28
Last Quarter

Hourly Weather History & Observations

Time (EDT) Temp. Windchill Dew Point Humidity Pressure Visibility Wind Dir Wind Speed Gust Speed Precip Events Conditions
12:53 AM 37.9 °F 29.2 °F 28.0 °F 68% 29.84 in 10.0 mi North 15.0 mph - N/A   Scattered Clouds
1:53 AM 37.9 °F 27.6 °F 21.9 °F 53% 29.84 in 10.0 mi North 20.7 mph - N/A   Overcast
2:53 AM 37.0 °F 29.3 °F 24.1 °F 59% 29.84 in 10.0 mi North 11.5 mph - N/A   Overcast
3:53 AM 36.0 °F 26.7 °F 24.1 °F 62% 29.83 in 10.0 mi North 15.0 mph 25.3 mph N/A   Overcast
4:53 AM 36.0 °F 25.3 °F 23.0 °F 59% 29.83 in 10.0 mi NNW 19.6 mph 23.0 mph N/A   Overcast
5:53 AM 36.0 °F 26.0 °F 23.0 °F 59% 29.83 in 10.0 mi NNW 17.3 mph - N/A   Overcast
6:53 AM 35.1 °F 25.2 °F 23.0 °F 61% 29.84 in 10.0 mi North 16.1 mph - N/A   Overcast
7:53 AM 34.0 °F 22.4 °F 19.9 °F 56% 29.85 in 10.0 mi NNW 20.7 mph 27.6 mph N/A   Overcast
8:53 AM 33.1 °F 21.2 °F 19.9 °F 59% 29.86 in 10.0 mi NNW 20.7 mph 28.8 mph N/A   Overcast
9:53 AM 33.1 °F 20.6 °F 19.9 °F 59% 29.88 in 10.0 mi NNW 23.0 mph 26.5 mph N/A   Overcast
10:53 AM 34.0 °F 22.7 °F 19.9 °F 56% 29.88 in 10.0 mi North 19.6 mph 27.6 mph N/A   Overcast
11:53 AM 35.1 °F 24.1 °F 21.0 °F 57% 29.90 in 10.0 mi North 19.6 mph - N/A   Overcast
12:53 PM 36.0 °F 26.3 °F 21.0 °F 55% 29.89 in 10.0 mi NNW 16.1 mph 25.3 mph N/A   Overcast
1:53 PM 36.0 °F 26.0 °F 21.0 °F 55% 29.90 in 10.0 mi North 17.3 mph - N/A   Overcast
2:53 PM 36.0 °F 27.5 °F 19.9 °F 52% 29.90 in 10.0 mi North 12.7 mph - N/A   Overcast
3:53 PM 36.0 °F 27.1 °F 19.0 °F 50% 29.91 in 10.0 mi NNW 13.8 mph - N/A   Overcast
4:53 PM 34.0 °F 25.5 °F 19.9 °F 56% 29.94 in 10.0 mi North 11.5 mph - N/A   Overcast
5:53 PM 33.1 °F 22.6 °F 19.0 °F 56% 29.97 in 10.0 mi North 16.1 mph - N/A   Overcast
6:53 PM 33.1 °F 24.4 °F 19.9 °F 59% 30.00 in 10.0 mi North 11.5 mph - N/A   Overcast
7:53 PM 32.0 °F 23.6 °F 19.0 °F 59% 30.03 in 10.0 mi North 10.4 mph - N/A   Overcast
8:53 PM 32.0 °F 23.0 °F 18.0 °F 56% 30.04 in 10.0 mi NNW 11.5 mph - N/A   Overcast
9:53 PM 32.0 °F 22.5 °F 18.0 °F 56% 30.05 in 10.0 mi NNW 12.7 mph - N/A   Overcast
10:53 PM 32.0 °F 24.2 °F 18.0 °F 56% 30.09 in 10.0 mi NNW 9.2 mph - N/A   Overcast
11:53 PM 32.0 °F 24.8 °F 19.0 °F 59% 30.11 in 10.0 mi NNW 8.1 mph - N/A   Overcast